Starlink 34752

operational
NORAD ID: 66153 Int'l Des: 2025-240 Owner: SPXS Country: US Constellation: starlink
LEOCIRCULAR

Starlink 34752について

説明を読み込み中...

リアルタイム位置

3D地球を読み込み中...

次回通過

高度履歴

Altitude vs Time

uPlot chart will show altitude changes over time

軌道要素

1 66153C 25240J 25298.74631944 .00625980 00000+0 10207-2 0 2981
2 66153 53.1580 338.7961 0009079 269.8081 345.0509 16.01878363 11
Epoch: Oct 25, 2025 • Age: 168 hours

現在のステータス

高度 249.5 km
速度 7.76 km/s
衛星直下点 39.40°N, 45.09°E
打ち上げ日 Oct 25, 2025
運用期間 6 days
タイプ internet

技術仕様

分類 Payload
質量 575.00 kg
乾燥質量 530.00 kg
総質量 575.00 kg
長さ 0.30 m
直径 4.10 m
スパン 29.00 m
形状 Box + pan
製造者 SPXS
バスタイプ Starlink V2MO
フェーズステータス In Orbit
所有者/国 SPXS/US

大規模コンステレーション

Loading constellations...